TAR745 EGCC-EDDF

Flight info

Callsign TAR745
Flight time 1h 18m
Altitude 35000
Route DESIG L603 DOLAS DCT NAVPI DCT NOLRU DCT DIXAT DIXAT1A
Aircraft A320/M-SDE3FGHIRWY/LB1

Departure

Time 2026-05-05 14:50
Airport Manchester Airport (EGCC)

Arrival

Time 2026-05-05 16:08
Airport Frankfurt Main Airport (EDDF)
Time Latitude Longitude Altitude Speed Heading
2026-05-05 14:21 53.35951 -2.27130 233 ft 0 kts 92°
2026-05-05 14:41 53.35952 -2.27168 233 ft 4 kts 98°
2026-05-05 14:41 53.35958 -2.27211 237 ft 3 kts 118°
2026-05-05 14:41 53.35974 -2.27239 235 ft 2 kts 175°
2026-05-05 14:41 53.35982 -2.27240 235 ft 0 kts 178°
2026-05-05 14:45 53.35975 -2.27240 235 ft 4 kts 178°
2026-05-05 14:45 53.35948 -2.27238 234 ft 4 kts 176°
2026-05-05 14:46 53.35908 -2.27230 233 ft 9 kts 172°
2026-05-05 14:46 53.35848 -2.27225 233 ft 8 kts 196°
2026-05-05 14:46 53.35804 -2.27290 233 ft 12 kts 229°
2026-05-05 14:46 53.35733 -2.27442 233 ft 21 kts 232°
2026-05-05 14:47 53.35621 -2.27655 233 ft 28 kts 223°
2026-05-05 14:47 53.35466 -2.27906 233 ft 34 kts 224°
2026-05-05 14:47 53.35284 -2.28201 233 ft 39 kts 224°
2026-05-05 14:47 53.35106 -2.28567 233 ft 42 kts 231°
2026-05-05 14:48 53.34922 -2.28906 233 ft 35 kts 225°
2026-05-05 14:48 53.34784 -2.29157 233 ft 29 kts 231°
2026-05-05 14:48 53.34628 -2.29346 233 ft 29 kts 180°
2026-05-05 14:48 53.34574 -2.29142 235 ft 25 kts 32°
2026-05-05 14:49 53.34653 -2.28997 233 ft 16 kts 54°
2026-05-05 14:49 53.34691 -2.28909 233 ft 0 kts 52°
2026-05-05 14:50 53.34732 -2.28825 233 ft 42 kts 51°
2026-05-05 14:50 53.35154 -2.27972 230 ft 144 kts 50°
2026-05-05 14:50 53.35939 -2.26344 261 ft 210 kts 48°
2026-05-05 14:50 53.36857 -2.24415 1254 ft 215 kts 50°
2026-05-05 14:51 53.37782 -2.22409 2405 ft 217 kts 50°
2026-05-05 14:51 53.38699 -2.20461 3327 ft 213 kts 50°
2026-05-05 14:51 53.39660 -2.18439 3803 ft 230 kts 50°
2026-05-05 14:51 53.40706 -2.16242 4100 ft 251 kts 50°
2026-05-05 14:52 53.41825 -2.13878 4781 ft 264 kts 51°
2026-05-05 14:52 53.42963 -2.11468 4974 ft 262 kts 51°
2026-05-05 14:52 53.44087 -2.09079 4999 ft 260 kts 51°
2026-05-05 14:52 53.45206 -2.06694 5004 ft 260 kts 51°
2026-05-05 14:53 53.46325 -2.04307 5000 ft 260 kts 51°
2026-05-05 14:53 53.47439 -2.01928 4994 ft 260 kts 51°
2026-05-05 14:53 53.48559 -1.99541 4999 ft 260 kts 51°
2026-05-05 14:53 53.49611 -1.97047 5189 ft 269 kts 64°
2026-05-05 14:54 53.50036 -1.93982 6327 ft 272 kts 89°
2026-05-05 14:54 53.49884 -1.90815 7462 ft 275 kts 95°
2026-05-05 14:54 53.49653 -1.87588 8467 ft 283 kts 96°
2026-05-05 14:54 53.49395 -1.84265 9453 ft 291 kts 97°
2026-05-05 14:55 53.49123 -1.80852 10332 ft 303 kts 97°
2026-05-05 14:55 53.48834 -1.77206 10786 ft 327 kts 97°
2026-05-05 14:55 53.48523 -1.73273 11184 ft 352 kts 97°
2026-05-05 14:55 53.48189 -1.69066 11501 ft 376 kts 97°
2026-05-05 14:56 53.47835 -1.64591 11898 ft 394 kts 97°
2026-05-05 14:56 53.47453 -1.59991 12622 ft 401 kts 100°
2026-05-05 14:56 53.46758 -1.55428 13397 ft 406 kts 107°
2026-05-05 14:56 53.45937 -1.50862 14132 ft 411 kts 107°
2026-05-05 14:57 53.45106 -1.46248 14804 ft 415 kts 107°
2026-05-05 14:57 53.44278 -1.41641 15461 ft 420 kts 107°
2026-05-05 14:57 53.43428 -1.36928 16127 ft 424 kts 108°
2026-05-05 14:57 53.42554 -1.32102 16780 ft 429 kts 108°
2026-05-05 14:58 53.41691 -1.27351 17404 ft 434 kts 108°
2026-05-05 14:58 53.40798 -1.22435 18030 ft 438 kts 108°
2026-05-05 14:58 53.39916 -1.17581 18594 ft 442 kts 108°
2026-05-05 14:58 53.39003 -1.12563 19154 ft 446 kts 108°
2026-05-05 14:59 53.38093 -1.07578 19692 ft 450 kts 109°
2026-05-05 14:59 53.37173 -1.02555 20228 ft 453 kts 109°
2026-05-05 14:59 53.36242 -0.97497 20745 ft 456 kts 109°
2026-05-05 14:59 53.35303 -0.92405 21250 ft 459 kts 109°
2026-05-05 15:00 53.34367 -0.87352 21748 ft 462 kts 109°
2026-05-05 15:00 53.33722 -0.83878 22083 ft 464 kts 109°
2026-05-05 15:00 53.32444 -0.77022 22741 ft 468 kts 109°
2026-05-05 15:00 53.31472 -0.71815 23225 ft 470 kts 109°
2026-05-05 15:01 53.30495 -0.66586 23672 ft 473 kts 109°
2026-05-05 15:01 53.29512 -0.61324 24064 ft 475 kts 109°
2026-05-05 15:01 53.28519 -0.56041 24464 ft 477 kts 109°
2026-05-05 15:01 53.27519 -0.50754 24865 ft 478 kts 109°
2026-05-05 15:02 53.26513 -0.45451 25261 ft 480 kts 109°
2026-05-05 15:02 53.25504 -0.40126 25628 ft 482 kts 109°
2026-05-05 15:02 53.24486 -0.34780 25987 ft 483 kts 109°
2026-05-05 15:02 53.23463 -0.29428 26341 ft 485 kts 110°
2026-05-05 15:03 53.22435 -0.24053 26737 ft 486 kts 110°
2026-05-05 15:03 53.21408 -0.18700 27277 ft 484 kts 110°
2026-05-05 15:03 53.20381 -0.13366 27814 ft 482 kts 110°
2026-05-05 15:03 53.19354 -0.08055 28335 ft 481 kts 110°
2026-05-05 15:04 53.18330 -0.02755 28866 ft 479 kts 110°
2026-05-05 15:04 53.17310 0.02515 29406 ft 477 kts 110°
2026-05-05 15:04 53.16288 0.07772 29927 ft 476 kts 111°
2026-05-05 15:04 53.15262 0.13029 30400 ft 475 kts 111°
2026-05-05 15:05 53.13217 0.23439 31285 ft 472 kts 110°
2026-05-05 15:05 53.12193 0.28637 31731 ft 471 kts 110°
2026-05-05 15:05 53.11185 0.33751 32179 ft 470 kts 110°
2026-05-05 15:06 53.10169 0.38912 32628 ft 469 kts 110°
2026-05-05 15:06 53.09154 0.44052 33070 ft 467 kts 110°
2026-05-05 15:06 53.08136 0.49172 33517 ft 466 kts 110°
2026-05-05 15:06 53.07111 0.54316 33970 ft 465 kts 110°
2026-05-05 15:07 53.06093 0.59418 34335 ft 465 kts 110°
2026-05-05 15:07 53.05071 0.64522 34677 ft 465 kts 110°
2026-05-05 15:07 53.04044 0.69624 34928 ft 466 kts 110°
2026-05-05 15:08 53.01994 0.79769 34984 ft 466 kts 110°
2026-05-05 15:08 52.99925 0.89972 34992 ft 466 kts 111°
2026-05-05 15:09 52.97847 1.00156 34988 ft 466 kts 111°
2026-05-05 15:09 52.95647 1.10276 34994 ft 466 kts 113°
2026-05-05 15:10 52.93333 1.20331 34992 ft 466 kts 114°
2026-05-05 15:10 52.91006 1.30374 34995 ft 467 kts 113°
2026-05-05 15:11 52.88700 1.40436 34996 ft 467 kts 113°
2026-05-05 15:11 52.86417 1.50424 34992 ft 467 kts 113°
2026-05-05 15:12 52.84110 1.60476 34989 ft 467 kts 114°
2026-05-05 15:12 52.81747 1.70650 34991 ft 478 kts 114°
2026-05-05 15:13 52.79354 1.80922 34988 ft 480 kts 114°
2026-05-05 15:13 52.76955 1.91211 34987 ft 480 kts 114°
2026-05-05 15:14 52.74544 2.01492 34985 ft 480 kts 114°
2026-05-05 15:14 52.72115 2.11765 34983 ft 480 kts 114°
2026-05-05 15:15 52.69680 2.22018 34974 ft 480 kts 114°
2026-05-05 15:15 52.67236 2.32263 34969 ft 480 kts 114°
2026-05-05 15:16 52.65185 2.40833 34963 ft 480 kts 114°
2026-05-05 15:16 52.62726 2.51046 34957 ft 480 kts 114°
2026-05-05 15:17 52.60272 2.61174 34956 ft 479 kts 114°
2026-05-05 15:17 52.57803 2.71354 34957 ft 479 kts 114°
2026-05-05 15:18 52.55316 2.81594 34960 ft 479 kts 114°
2026-05-05 15:18 52.52672 2.91619 34960 ft 477 kts 117°
2026-05-05 15:19 52.49770 3.01404 34962 ft 476 kts 119°
2026-05-05 15:19 52.46834 3.11122 34959 ft 475 kts 119°
2026-05-05 15:20 52.43980 3.20790 34959 ft 474 kts 118°
2026-05-05 15:20 52.41137 3.30521 34961 ft 473 kts 118°
2026-05-05 15:21 52.38276 3.40303 34959 ft 472 kts 118°
2026-05-05 15:21 52.35433 3.49904 34953 ft 471 kts 119°
2026-05-05 15:22 52.32557 3.59521 34950 ft 470 kts 119°
2026-05-05 15:22 52.29682 3.69128 34946 ft 470 kts 119°
2026-05-05 15:23 52.26816 3.78704 34945 ft 469 kts 119°
2026-05-05 15:23 52.23943 3.88258 34944 ft 468 kts 120°
2026-05-05 15:24 52.21059 3.97784 34943 ft 468 kts 120°
2026-05-05 15:24 52.18172 4.07293 34933 ft 468 kts 120°
2026-05-05 15:25 52.15283 4.16772 34921 ft 467 kts 120°
2026-05-05 15:25 52.12391 4.26203 34919 ft 467 kts 120°
2026-05-05 15:26 52.09484 4.35669 34918 ft 467 kts 120°
2026-05-05 15:26 52.06587 4.45107 34918 ft 466 kts 120°
2026-05-05 15:27 52.03677 4.54520 34920 ft 466 kts 121°
2026-05-05 15:27 52.00751 4.63920 34923 ft 467 kts 121°
2026-05-05 15:28 51.97813 4.73312 34937 ft 466 kts 121°
2026-05-05 15:28 51.94876 4.82689 34927 ft 466 kts 121°
2026-05-05 15:29 51.91935 4.92056 34919 ft 466 kts 121°
2026-05-05 15:29 51.88991 5.01408 34910 ft 466 kts 121°
2026-05-05 15:30 51.86041 5.10733 34900 ft 465 kts 121°
2026-05-05 15:30 51.83076 5.20039 34909 ft 466 kts 121°
2026-05-05 15:31 51.80096 5.29337 34896 ft 466 kts 121°
2026-05-05 15:31 51.77119 5.38628 34899 ft 466 kts 121°
2026-05-05 15:32 51.74131 5.47922 34889 ft 466 kts 121°
2026-05-05 15:32 51.71158 5.57132 34897 ft 466 kts 121°
2026-05-05 15:33 51.68165 5.66375 34886 ft 465 kts 121°
2026-05-05 15:33 51.65164 5.75592 34887 ft 464 kts 121°
2026-05-05 15:34 51.62161 5.84790 34887 ft 464 kts 121°
2026-05-05 15:34 51.59151 5.93975 34891 ft 464 kts 121°
2026-05-05 15:35 51.56135 6.03155 34891 ft 464 kts 122°
2026-05-05 15:35 51.53118 6.12305 34892 ft 464 kts 122°
2026-05-05 15:36 51.50118 6.21495 34886 ft 466 kts 118°
2026-05-05 15:36 51.47755 6.30990 34888 ft 468 kts 116°
2026-05-05 15:37 51.45363 6.40741 34890 ft 468 kts 116°
2026-05-05 15:37 51.42987 6.50409 34869 ft 467 kts 116°
2026-05-05 15:38 51.40584 6.60125 34869 ft 467 kts 116°
2026-05-05 15:38 51.38179 6.69763 34870 ft 466 kts 116°
2026-05-05 15:39 51.35772 6.79396 34870 ft 465 kts 116°
2026-05-05 15:39 51.33369 6.89012 34869 ft 465 kts 117°
2026-05-05 15:40 51.30953 6.98573 34864 ft 463 kts 117°
2026-05-05 15:40 51.28374 7.07950 34858 ft 457 kts 125°
2026-05-05 15:41 51.24451 7.15690 34857 ft 444 kts 143°
2026-05-05 15:41 51.19449 7.20885 34851 ft 436 kts 157°
2026-05-05 15:42 51.14019 7.25163 34839 ft 435 kts 156°
2026-05-05 15:42 51.08608 7.29477 34836 ft 435 kts 156°
2026-05-05 15:43 51.03261 7.33907 34835 ft 436 kts 155°
2026-05-05 15:43 50.97890 7.38379 34824 ft 435 kts 155°
2026-05-05 15:44 50.92521 7.42813 34823 ft 435 kts 155°
2026-05-05 15:44 50.87130 7.47211 34694 ft 436 kts 155°
2026-05-05 15:44 50.84444 7.49405 34107 ft 433 kts 155°
2026-05-05 15:45 50.81794 7.51573 33540 ft 424 kts 155°
2026-05-05 15:45 50.79184 7.53701 32685 ft 422 kts 155°
2026-05-05 15:45 50.76568 7.55833 31623 ft 425 kts 154°
2026-05-05 15:45 50.73926 7.57981 30479 ft 430 kts 154°
2026-05-05 15:46 50.71244 7.60154 29189 ft 437 kts 154°
2026-05-05 15:46 50.68522 7.62355 27789 ft 443 kts 154°
2026-05-05 15:46 50.65796 7.64555 26412 ft 448 kts 154°
2026-05-05 15:46 50.63019 7.66799 25431 ft 446 kts 154°
2026-05-05 15:47 50.60274 7.69017 24531 ft 440 kts 153°
2026-05-05 15:47 50.58473 7.70471 23940 ft 438 kts 153°
2026-05-05 15:47 50.54867 7.73377 22622 ft 433 kts 153°
2026-05-05 15:47 50.52156 7.75557 21164 ft 442 kts 153°
2026-05-05 15:48 50.49401 7.77769 20401 ft 446 kts 153°
2026-05-05 15:48 50.46635 7.79990 20076 ft 447 kts 153°
2026-05-05 15:48 50.43884 7.82247 19551 ft 446 kts 150°
2026-05-05 15:48 50.41369 7.85086 18419 ft 445 kts 142°
2026-05-05 15:49 50.38953 7.88091 17491 ft 439 kts 142°
2026-05-05 15:49 50.36585 7.91056 16536 ft 433 kts 142°
2026-05-05 15:49 50.34251 7.93978 15627 ft 427 kts 142°
2026-05-05 15:49 50.31943 7.96853 14860 ft 423 kts 142°
2026-05-05 15:50 50.29642 7.99708 14098 ft 418 kts 142°
2026-05-05 15:50 50.27376 8.02513 13247 ft 413 kts 141°
2026-05-05 15:50 50.25389 8.05702 12338 ft 408 kts 129°
2026-05-05 15:50 50.23646 8.09167 11412 ft 403 kts 128°
2026-05-05 15:51 50.21941 8.12620 10507 ft 399 kts 128°
2026-05-05 15:51 50.20265 8.16041 9646 ft 394 kts 128°
2026-05-05 15:51 50.18623 8.19403 9342 ft 389 kts 128°
2026-05-05 15:51 50.17001 8.22711 9255 ft 389 kts 129°
2026-05-05 15:52 50.15351 8.26058 9169 ft 389 kts 129°
2026-05-05 15:52 50.13723 8.29348 9067 ft 372 kts 129°
2026-05-05 15:52 50.12195 8.32440 8926 ft 349 kts 128°
2026-05-05 15:52 50.10997 8.35588 8812 ft 331 kts 112°
2026-05-05 15:53 50.10547 8.39005 8665 ft 317 kts 93°
2026-05-05 15:53 50.10836 8.42323 8546 ft 305 kts 74°
2026-05-05 15:53 50.11553 8.45363 8402 ft 292 kts 71°
2026-05-05 15:53 50.12260 8.48292 8050 ft 287 kts 71°
2026-05-05 15:54 50.12958 8.51194 7651 ft 285 kts 71°
2026-05-05 15:54 50.13649 8.54082 7236 ft 284 kts 71°
2026-05-05 15:54 50.14335 8.56961 6887 ft 282 kts 71°
2026-05-05 15:54 50.15015 8.59831 6834 ft 283 kts 71°
2026-05-05 15:55 50.15697 8.62710 6834 ft 283 kts 71°
2026-05-05 15:55 50.16380 8.65596 6831 ft 284 kts 71°
2026-05-05 15:55 50.17065 8.68482 6831 ft 284 kts 71°
2026-05-05 15:55 50.17750 8.71372 6831 ft 284 kts 71°
2026-05-05 15:56 50.18437 8.74264 6830 ft 284 kts 71°
2026-05-05 15:56 50.19124 8.77152 6831 ft 284 kts 71°
2026-05-05 15:56 50.19793 8.79971 6767 ft 270 kts 71°
2026-05-05 15:56 50.20432 8.82676 6516 ft 261 kts 71°
2026-05-05 15:57 50.21047 8.85300 6275 ft 254 kts 71°
2026-05-05 15:57 50.21649 8.87867 6059 ft 249 kts 72°
2026-05-05 15:57 50.22241 8.90398 5983 ft 248 kts 71°
2026-05-05 15:57 50.22833 8.92926 5986 ft 248 kts 71°
2026-05-05 15:58 50.23426 8.95463 5987 ft 249 kts 71°
2026-05-05 15:58 50.24018 8.98000 5989 ft 248 kts 71°
2026-05-05 15:58 50.24607 9.00536 5989 ft 248 kts 71°
2026-05-05 15:58 50.24999 9.02218 5990 ft 249 kts 71°
2026-05-05 15:59 50.25592 9.04758 5988 ft 249 kts 71°
2026-05-05 15:59 50.26032 9.07354 5985 ft 246 kts 90°
2026-05-05 15:59 50.25676 9.09910 5867 ft 242 kts 121°
2026-05-05 15:59 50.24557 9.11761 5627 ft 233 kts 153°
2026-05-05 16:00 50.23021 9.12358 5404 ft 229 kts 185°
2026-05-05 16:00 50.21545 9.11551 5176 ft 227 kts 216°
2026-05-05 16:00 50.20347 9.09945 5027 ft 228 kts 223°
2026-05-05 16:00 50.19203 9.08228 4979 ft 228 kts 226°
2026-05-05 16:01 50.18315 9.06194 4990 ft 229 kts 240°
2026-05-05 16:01 50.17549 9.04054 4989 ft 222 kts 240°
2026-05-05 16:01 50.16801 9.01969 4989 ft 219 kts 240°
2026-05-05 16:01 50.16059 8.99902 4992 ft 218 kts 240°
2026-05-05 16:02 50.15264 8.97883 4994 ft 219 kts 240°
2026-05-05 16:02 50.14621 8.95741 4991 ft 219 kts 246°
2026-05-05 16:02 50.14078 8.93519 4992 ft 219 kts 249°
2026-05-05 16:02 50.13582 8.91399 4993 ft 208 kts 248°
2026-05-05 16:03 50.13117 8.89412 4990 ft 195 kts 248°
2026-05-05 16:03 50.12658 8.87458 4883 ft 191 kts 248°
2026-05-05 16:03 50.12210 8.85553 4670 ft 191 kts 248°
2026-05-05 16:03 50.11749 8.83600 4402 ft 193 kts 249°
2026-05-05 16:04 50.11287 8.81635 4160 ft 193 kts 249°
2026-05-05 16:04 50.10822 8.79663 3903 ft 194 kts 249°
2026-05-05 16:04 50.10356 8.77689 3654 ft 192 kts 249°
2026-05-05 16:04 50.09904 8.75776 3406 ft 186 kts 249°
2026-05-05 16:05 50.09472 8.73948 3153 ft 181 kts 249°
2026-05-05 16:05 50.09029 8.72079 2906 ft 180 kts 249°
2026-05-05 16:05 50.08597 8.70256 2663 ft 178 kts 249°
2026-05-05 16:05 50.08168 8.68447 2444 ft 177 kts 250°
2026-05-05 16:06 50.07740 8.66641 2195 ft 178 kts 249°
2026-05-05 16:06 50.07315 8.64849 1943 ft 175 kts 249°
2026-05-05 16:06 50.06895 8.63081 1713 ft 173 kts 249°
2026-05-05 16:06 50.06501 8.61428 1494 ft 154 kts 249°
2026-05-05 16:07 50.06146 8.59937 1290 ft 141 kts 250°
2026-05-05 16:07 50.05816 8.58553 1094 ft 133 kts 249°
2026-05-05 16:07 50.05500 8.57232 911 ft 130 kts 251°
2026-05-05 16:07 50.05190 8.55923 774 ft 130 kts 249°
2026-05-05 16:08 50.04879 8.54612 587 ft 128 kts 248°
2026-05-05 16:08 50.04569 8.53322 404 ft 127 kts 247°
2026-05-05 16:08 50.04286 8.52136 339 ft 97 kts 251°
2026-05-05 16:08 50.04112 8.51407 332 ft 47 kts 250°
2026-05-05 16:09 50.03979 8.51016 326 ft 39 kts 228°
2026-05-05 16:09 50.03814 8.50846 332 ft 17 kts 170°
2026-05-05 16:09 50.03781 8.50886 332 ft 0 kts 102°
2026-05-05 16:09 50.03782 8.50935 334 ft 10 kts 82°
2026-05-05 16:10 50.03825 8.51106 332 ft 24 kts 70°
2026-05-05 16:10 50.03896 8.51402 332 ft 33 kts 70°
2026-05-05 16:10 50.03972 8.51726 335 ft 32 kts 70°
2026-05-05 16:10 50.04049 8.52045 338 ft 31 kts 70°
2026-05-05 16:11 50.04122 8.52352 350 ft 30 kts 68°
2026-05-05 16:11 50.04202 8.52678 355 ft 4 kts 69°
2026-05-05 16:12 50.04208 8.52702 354 ft 1 kts 69°
2026-05-05 16:12 50.04268 8.52957 353 ft 25 kts 70°
2026-05-05 16:13 50.04414 8.53801 376 ft 29 kts 84°
2026-05-05 16:13 50.04436 8.54128 375 ft 32 kts 83°
2026-05-05 16:13 50.04453 8.54451 370 ft 30 kts 91°
2026-05-05 16:14 50.04363 8.54719 360 ft 15 kts 142°
2026-05-05 16:14 50.04335 8.54751 362 ft 0 kts 145°
2026-05-05 16:15 50.04272 8.54796 356 ft 9 kts 158°
2026-05-05 16:16 50.04192 8.54840 356 ft 7 kts 160°
2026-05-05 16:16 50.04181 8.54846 358 ft 0 kts 161°
2026-05-05 16:17 50.04166 8.54853 356 ft 3 kts 161°
2026-05-05 16:17 50.04143 8.54867 354 ft 4 kts 159°
2026-05-05 16:18 50.04085 8.54900 352 ft 4 kts 160°
2026-05-05 16:18 50.04065 8.54912 358 ft 2 kts 159°
2026-05-05 16:18 50.04055 8.54918 354 ft 1 kts 159°
2026-05-05 16:19 50.04048 8.54922 353 ft 0 kts 159°
2026-05-05 16:19 50.04022 8.54938 355 ft 14 kts 159°
2026-05-05 16:19 50.03916 8.55003 355 ft 5 kts 159°
2026-05-05 16:20 50.03879 8.55023 355 ft 2 kts 160°
2026-05-05 16:20 50.03849 8.55083 349 ft 5 kts 102°
2026-05-05 16:21 50.03863 8.55175 351 ft 4 kts 71°
2026-05-05 16:22 50.03909 8.55365 349 ft 14 kts 69°
2026-05-05 16:22 50.03981 8.55665 354 ft 15 kts 68°
2026-05-05 16:23 50.04046 8.55938 354 ft 12 kts 69°
2026-05-05 16:23 50.04075 8.56060 356 ft 12 kts 70°
2026-05-05 16:23 50.04120 8.56247 357 ft 0 kts 69°
2026-05-05 16:24 50.04129 8.56285 356 ft 7 kts 70°
2026-05-05 16:24 50.04145 8.56353 360 ft 6 kts 70°
2026-05-05 16:24 50.04170 8.56457 359 ft 4 kts 69°
2026-05-05 16:25 50.04179 8.56494 356 ft 3 kts 69°
2026-05-05 16:25 50.04194 8.56556 362 ft 7 kts 70°
2026-05-05 16:25 50.04203 8.56592 361 ft 8 kts 70°
2026-05-05 16:26 50.04270 8.56879 363 ft 14 kts 69°
2026-05-05 16:26 50.04336 8.57152 361 ft 12 kts 70°
2026-05-05 16:27 50.04364 8.57275 363 ft 12 kts 70°
2026-05-05 16:27 50.04402 8.57433 365 ft 23 kts 70°
2026-05-05 16:27 50.04470 8.57723 368 ft 25 kts 70°
2026-05-05 16:27 50.04509 8.57880 366 ft 11 kts 69°
2026-05-05 16:28 50.04523 8.57942 364 ft 6 kts 70°
2026-05-05 16:28 50.04531 8.57974 367 ft 3 kts 68°
2026-05-05 16:28 50.04547 8.58011 367 ft 6 kts 48°
2026-05-05 16:28 50.04567 8.58027 362 ft 4 kts 15°
2026-05-05 16:29 50.04611 8.58016 361 ft 8 kts 345°
2026-05-05 16:29 50.04651 8.57991 360 ft 2 kts 339°
2026-05-05 16:29 50.04658 8.57987 358 ft 1 kts 339°
2026-05-05 16:29 50.04670 8.57980 358 ft 2 kts 339°
2026-05-05 16:30 50.04679 8.57975 360 ft 0 kts 339°
2026-05-05 16:30 50.04681 8.57974 359 ft 0 kts 339°
2026-05-05 16:30 50.04685 8.57972 359 ft 1 kts 343°
2026-05-05 16:30 50.04691 8.57969 363 ft 0 kts 341°